Location: Aldenham
(51.6667°N, 0.3500°W)
Time: 16:06:13
(UTC+00:00)

Vanguard 2 Rocket - Pass Details

Date: 21 February 2026
Orbit: 553 x 3286 km, 32.9° (Epoch: 11 March)

Event Time Altitude Azimuth Distance (km) Brightness Sun altitude
Rises 14:42:55 0° 258° (WSW) 7,142 12.3 20.2°
Reaches altitude 10° 14:48:42 10° 250° (WSW) 5,896 12.2 19.6°
Maximum altitude 15:02:42 32° 197° (SSW) 3,437 11.1 18.2°
Drops below altitude 10° 15:12:12 10° 139° (SE) 3,969 10.3 17.2°
Sets 15:15:14 0° 129° (SE) 4,608 10.4 16.8°
